Volver al catálogo

HULIANWANG DIGUI-73

ActivoComunicacionesLEO
NORAD 65305·PAYLOAD·🇨🇳 China

Lanzado Aug 25, 2025 desde Wenchang Space Launch Site

Loading…

Próximos Pases (próximas 24 horas)

TLE

ActualizadoSource: Space-Track

Época: Sep 14, 2026, 12:37 UTC

1 65305U 25187A   26257.52580325 -.00000093  00000-0  67916-4 0  9990
2 65305  50.0037 245.4739 0000660 335.8423  24.2418 13.29326314 51584

Sigue HULIANWANG DIGUI-73 en tiempo real con AllMySat

Download on the App Store